User: anonymous   Login
Location: Darlington Observatory
(36.4817°N, 105.8156°W)
Time: 13:00:22
(UTC-06:00)
Language:

NOSS 3-3 (A) - Orbit

View from above orbital plane
View from above orbital plane
View from above satellite
View from above satellite

Ground track
Ground track

The orbit data is extracted from the following two-line orbital elements,

1 28537U 05004A   15181.98248303 0.00000000  00000-0  00000-0 0    00
2 28537  63.4294 215.8211 0203000 358.7967   1.2032 13.40685961    06
Epoch (UTC): 30 June 2015 23:34:46
Eccentricity: 0.0203000
inclination: 63.4294°
perigee height: 955 km
apogee height: 1258 km
right ascension of ascending node: 215.8211°
argument of perigee: 358.7967°
revolutions per day: 13.40685961
mean anomaly at epoch: 1.2032°
orbit number at epoch: 0

The dashed part of the orbit path shows where the satellite is in the earth's shadow,  

DLR